Location: Roland
(31.1349°N, 85.4372°W)
Time: 20:25:35
(UTC+00:00)

Vanguard 2 Rocket - Pass Details

Date: 26 April 2021
Orbit: 554 x 3326 km, 32.9° (Epoch: 13 May)

Event Time Altitude Azimuth Distance (km) Brightness Sun altitude
Rises 00:54:48 0° 287° (WNW) 7,306 13.9 -8.5°
Reaches altitude 10° 01:00:42 10° 279° (W) 6,168 12.6 -9.6°
Maximum altitude 01:15:54 32° 226° (SW) 3,847 10.3 -12.6°
Drops below altitude 10° 01:26:46 10° 168° (SSE) 4,363 10.0 -14.7°
Enters shadow 01:29:20 - 160° (SSE) 4,820 10.2 -15.2°
